Location: Ferchesar
(52.6477°N, 12.4298°E)
Time: 00:22:43
(UTC+01:00)

Vanguard 2 Rocket - Pass Details

Date: 04 December 2021
Orbit: 554 x 3325 km, 32.9° (Epoch: 21 January)

Event Time Altitude Azimuth Distance (km) Brightness Sun altitude
Rises 00:04:52 0° 257° (WSW) 5,190 - -59.6°
Reaches altitude 10° 00:10:09 10° 237° (WSW) 4,734 - -59.5°
Maximum altitude 00:16:51 15° 208° (SSW) 4,882 - -59.4°
Drops below altitude 10° 00:24:54 10° 180° (S) 5,846 - -59.2°
Sets 00:33:09 0° 162° (SSE) 7,199 - -58.9°
